Location: Unspecified
(35.7250°N, 0.0000°E)
Time: 11:28:27
(UTC+00:00)

Transit 2A - All Passes

Search period start: 25 June 2019 00:00
Search period end: 05 July 2019 00:00
Orbit: 593 x 966 km, 66.7° (Epoch: 24 June)

Date Brightness Start Highest point End Pass type
(mag) Time Alt. Az. Time Alt. Az. Time Alt. Az.
25 Jun - 00:25:01 10° WSW 00:30:29 29° NW 00:35:54 10° N visible
25 Jun - 07:32:40 10° N 07:36:41 20° NE 07:40:25 10° E daylight
25 Jun - 09:15:07 10° NW 09:20:15 49° WSW 09:24:52 10° S daylight
25 Jun - 22:07:31 10° S 22:13:03 33° ESE 22:18:37 10° NE visible
25 Jun - 23:50:15 10° SW 23:56:11 40° WNW 00:02:06 10° NNE visible
26 Jun - 06:59:18 10° NNE 07:02:14 14° NE 07:05:02 10° ENE daylight
26 Jun - 08:40:52 10° NNW 08:46:14 78° WSW 08:51:01 10° SSE daylight
26 Jun - 21:34:22 10° SSE 21:39:07 23° ESE 21:43:54 10° ENE visible
26 Jun - 23:15:44 10° SW 23:21:58 56° WNW 23:28:11 10° NNE visible
27 Jun - 01:05:11 10° NW 01:06:32 11° NW 01:07:51 10° NNW visible
27 Jun - 06:27:16 10° NE 06:27:44 10° NE 06:28:11 10° NE daylight
27 Jun - 08:06:45 10° NNW 08:12:08 69° ENE 08:16:55 10° SE daylight
27 Jun - 09:53:03 10° W 09:54:24 11° W 09:55:45 10° WSW daylight
27 Jun - 21:01:49 10° SE 21:05:16 15° ESE 21:08:43 10° ENE visible
27 Jun - 22:41:27 10° SSW 22:47:48 79° WNW 22:54:10 10° NNE visible
28 Jun - 00:28:33 10° WNW 00:32:00 15° NW 00:35:25 10° NNW visible
28 Jun - 07:32:46 10° NNW 07:37:57 45° ENE 07:42:36 10° SE daylight
28 Jun - 09:17:10 10° WNW 09:20:36 18° WSW 09:23:49 10° SSW daylight
28 Jun - 22:07:23 10° SSW 22:13:42 74° ESE 22:20:01 10° NNE visible
28 Jun - 23:52:59 10° W 23:57:33 20° NW 00:02:04 10° N visible
29 Jun - 06:58:55 10° N 07:03:41 31° NE 07:08:00 10° ESE daylight
29 Jun - 08:42:20 10° NW 08:46:44 28° WSW 08:50:47 10° SSW daylight
29 Jun - 21:33:33 10° S 21:39:40 52° ESE 21:45:46 10° NE visible
29 Jun - 23:17:51 10° WSW 23:23:11 27° NW 23:28:27 10° N visible
30 Jun - 06:25:14 10° N 06:29:21 22° NE 06:33:08 10° E daylight
30 Jun - 08:07:50 10° NW 08:12:49 44° WSW 08:17:18 10° S daylight
30 Jun - 21:00:00 10° S 21:05:40 36° ESE 21:11:22 10° NE visible
30 Jun - 22:43:01 10° WSW 22:48:53 37° NW 22:54:41 10° N visible
01 Jul - 05:51:49 10° N 05:54:55 15° NE 05:57:52 10° E daylight
01 Jul - 07:33:32 10° NNW 07:38:49 70° WSW 07:43:31 10° SSE daylight
01 Jul - 20:26:46 10° SSE 20:31:44 25° ESE 20:36:43 10° NE visible
01 Jul - 22:08:27 10° SW 22:14:39 52° WNW 22:20:46 10° NNE visible
02 Jul - 05:19:12 10° NNE 05:20:25 11° NE 05:21:37 10° NE daylight
02 Jul - 06:59:24 10° NNW 07:04:44 76° ENE 07:09:29 10° SSE daylight
02 Jul - 19:54:02 10° SE 19:57:51 17° ESE 20:01:40 10° ENE visible
02 Jul - 21:34:07 10° SSW 21:40:28 74° WNW 21:46:47 10° NNE visible
02 Jul - 23:21:38 10° WNW 23:24:44 14° NW 23:27:47 10° NNW visible
03 Jul - 06:25:24 10° NNW 06:30:34 49° ENE 06:35:12 10° SE daylight
03 Jul - 08:10:06 10° WNW 08:13:08 16° WSW 08:16:00 10° SW daylight
03 Jul - 19:22:53 10° ESE 19:24:01 10° E 19:25:09 10° E daylight
03 Jul - 21:00:00 10° SSW 21:06:21 80° ESE 21:12:40 10° NNE visible
03 Jul - 22:45:56 10° W 22:50:16 19° NW 22:54:32 10° N visible
04 Jul - 05:51:31 10° N 05:56:19 33° NE 06:00:40 10° ESE daylight
04 Jul - 07:35:07 10° NW 07:39:17 25° WSW 07:43:07 10° SSW daylight
04 Jul - 20:26:07 10° S 20:32:18 56° ESE 20:38:27 10° NE visible
04 Jul - 22:10:42 10° WSW 22:15:53 26° NW 22:20:59 10° N visible
